Weather History for KAVL - December, 2012

Change the Weather History Date:

Saturday, December 8, 2012

  Actual Average Record
Temperature  
Mean Temperature 54 °F 41 °F  
Max Temperature 67 °F 51 °F 75 °F (1956)
Min Temperature 41 °F 31 °F 12 °F (1977)
Degree Days  
Heating Degree Days 11 24  
Month to date heating degree days 110 186  
Since 1 July heating degree days 1016 1053  
Cooling Degree Days 0 0  
Month to date cooling degree days 0 0  
Year to date cooling degree days 1022 863  
Growing Degree Days 4 (Base 50)    
Moisture  
Dew Point 47 °F    
Average Humidity 78    
Maximum Humidity 100    
Minimum Humidity 56    
Precipitation  
Precipitation T in 0.12 in 1.91 in (1924)
Month to date precipitation 0.02 1.04  
Year to date precipitation 40.30 43.02  
Snow  
Snow 0.00 in 0.00 in 2.00 in (1973)
Month to date snowfall 0.0 0.1  
Since 1 July snowfall 0.0 0.2  
Snow Depth 0.00 in    
Sea Level Pressure  
Sea Level Pressure 30.02 in    
Wind  
Wind Speed 4 mph (South)    
Max Wind Speed 14 mph    
Max Gust Speed 20 mph    
Visibility 5 miles    
Events Fog , Rain    
T = Trace of Precipitation, MM = Missing Value Source: NWS Daily Summary

Daily Weather History Graph

Daily Weather History Graph

Search for Another Location

Airport or City:

Trip Planner

Search our weather history database for the weather conditions in past years. The results will help you decide how hot, cold, wet, or windy it might be!

Date:

Astronomy

Dec. 08, 2012 Rise Set
Actual Time 7:27 AM EST 5:17 PM EST
Civil Twilight 6:59 AM EST 5:45 PM EST
Nautical Twilight 6:27 AM EST 6:17 PM EST
Astronomical Twilight 5:56 AM EST 6:48 PM EST
Moon 1:59 AM EST (12/8) 1:38 PM EST (12/8)
Length of Visible Light 10h 46m
Length of Day
9h 50m
Waning Crescent, 28% of the Moon is Illuminated
Dec 8
Waning Crescent
Dec 13
New
Dec 20
First Quarter
Dec 28
Full
Jan 4
Last Quarter

Hourly Weather History & Observations

Time (EST) Temp. Windchill Dew Point Humidity Pressure Visibility Wind Dir Wind Speed Gust Speed Precip Events Conditions
12:02 AM 41.0 °F - 41.0 °F 100% 30.04 in 2.0 mi Calm Calm - N/A   Mostly Cloudy
12:10 AM 42.8 °F - 41.0 °F 93% 30.04 in 8.0 mi Calm Calm - N/A   Mostly Cloudy
12:17 AM 42.8 °F - 42.8 °F 100% 30.04 in 9.0 mi Calm Calm - N/A   Overcast
12:54 AM 46.9 °F - 46.0 °F 97% 30.01 in 7.0 mi SSE 4.6 mph - N/A   Overcast
1:54 AM 46.9 °F - 46.0 °F 97% 29.99 in 6.0 mi Calm Calm - N/A   Overcast
2:54 AM 46.0 °F - 45.0 °F 96% 29.99 in 6.0 mi Calm Calm - N/A   Overcast
3:13 AM 44.6 °F - 44.6 °F 100% 30.01 in 1.5 mi Calm Calm - N/A   Overcast
3:24 AM 44.6 °F - 44.6 °F 100% 30.01 in 3.0 mi Calm Calm - N/A   Overcast
3:35 AM 46.4 °F - 44.6 °F 93% 30.01 in 2.0 mi Calm Calm - N/A   Overcast
3:43 AM 46.4 °F - 44.6 °F 93% 30.01 in 4.0 mi Calm Calm - N/A   Overcast
3:49 AM 44.6 °F - 44.6 °F 100% 30.01 in 1.8 mi Calm Calm - N/A   Overcast
3:54 AM 45.0 °F - 44.1 °F 97% 29.98 in 1.2 mi Calm Calm - N/A   Overcast
4:06 AM 44.6 °F - 44.6 °F 100% 30.00 in 0.5 mi Calm Calm - N/A Fog Fog
4:13 AM 44.6 °F 43.1 °F 44.6 °F 100% 30.00 in 1.0 mi NW 3.5 mph - N/A   Overcast
4:27 AM 44.6 °F 42.2 °F 44.6 °F 100% 30.00 in 0.5 mi NNW 4.6 mph - N/A Fog Fog
4:54 AM 45.0 °F 42.6 °F 44.1 °F 97% 29.99 in 0.5 mi NW 4.6 mph - N/A Fog Fog
5:00 AM 44.6 °F - 44.6 °F 100% 30.01 in 1.5 mi Calm Calm - N/A   Overcast
5:04 AM 44.6 °F - 44.6 °F 100% 30.01 in 3.0 mi Calm Calm - N/A   Overcast
5:20 AM 44.6 °F - 44.6 °F 100% 30.01 in 2.5 mi Calm Calm - N/A   Overcast
5:33 AM 44.6 °F 43.1 °F 44.6 °F 100% 30.01 in 5.0 mi NNW 3.5 mph - N/A   Overcast
5:54 AM 44.6 °F 43.1 °F 42.8 °F 93% 30.01 in 6.0 mi NNW 3.5 mph - N/A   Mostly Cloudy
6:28 AM 44.6 °F - 42.8 °F 93% 30.02 in 2.0 mi Calm Calm - N/A   Overcast
6:43 AM 44.6 °F - 44.6 °F 100% 30.03 in 0.8 mi Calm Calm - N/A   Mist
6:54 AM 44.1 °F - 44.1 °F 100% 30.02 in 0.8 mi Calm Calm - N/A   Overcast
6:58 AM 44.6 °F - 44.6 °F 100% 30.03 in 1.8 mi Calm Calm - N/A   Overcast
7:00 AM 44.6 °F - 44.6 °F 100% 30.03 in 3.0 mi Calm Calm - N/A   Overcast
7:17 AM 44.6 °F - 44.6 °F 100% 30.04 in 0.5 mi Calm Calm - N/A Fog Fog
7:54 AM 45.0 °F - 45.0 °F 100% 30.03 in 0.5 mi Calm Calm - N/A Fog Fog
8:01 AM 46.4 °F - 44.6 °F 93% 30.04 in 0.2 mi Calm Calm - N/A Fog Fog
8:10 AM 46.4 °F - 44.6 °F 93% 30.04 in 0.2 mi Calm Calm - N/A Fog Fog
8:27 AM 46.4 °F - 44.6 °F 93% 30.04 in 0.2 mi Calm Calm - N/A Fog Fog
8:50 AM 46.4 °F - 46.4 °F 100% 30.04 in 0.2 mi Calm Calm - N/A Fog Fog
8:54 AM 46.9 °F - 46.0 °F 97% 30.04 in 0.2 mi Calm Calm - N/A Fog Fog
9:16 AM 48.2 °F - 46.4 °F 93% 30.05 in 1.0 mi Calm Calm - N/A   Overcast
9:18 AM 46.4 °F - 46.4 °F 100% 30.05 in 2.0 mi Calm Calm - N/A   Overcast
9:26 AM 48.2 °F - 46.4 °F 93% 30.05 in 7.0 mi Calm Calm - N/A   Overcast
9:52 AM 48.2 °F - 46.4 °F 93% 30.06 in 2.0 mi Calm Calm - N/A   Overcast
9:54 AM 48.0 °F - 46.9 °F 96% 30.05 in 2.0 mi Calm Calm - N/A   Overcast
10:07 AM 48.2 °F - 48.2 °F 100% 30.06 in 4.0 mi Calm Calm - N/A   Mostly Cloudy
10:18 AM 51.8 °F - 48.2 °F 88% 30.05 in 7.0 mi Calm Calm - N/A   Scattered Clouds
10:54 AM 54.0 °F - 50.0 °F 86% 30.04 in 10.0 mi Calm Calm - N/A   Clear
11:54 AM 57.9 °F - 50.0 °F 75% 30.01 in 10.0 mi Calm Calm - N/A   Clear
12:54 PM 64.0 °F - 48.9 °F 58% 29.98 in 10.0 mi South 3.5 mph - N/A   Clear
1:54 PM 64.9 °F - 50.0 °F 58% 29.96 in 10.0 mi South 6.9 mph - N/A   Overcast
2:54 PM 66.0 °F - 50.0 °F 56% 29.96 in 10.0 mi SSW 6.9 mph - N/A   Overcast
3:54 PM 64.0 °F - 51.1 °F 63% 29.96 in 10.0 mi South 9.2 mph - N/A   Overcast
4:54 PM 61.0 °F - 51.1 °F 70% 29.98 in 10.0 mi SSW 11.5 mph - 0.00 in Rain Light Rain
5:54 PM 57.9 °F - 52.0 °F 81% 30.00 in 10.0 mi SSE 6.9 mph - 0.00 in   Overcast
6:54 PM 55.0 °F - 51.1 °F 86% 30.01 in 10.0 mi South 10.4 mph - N/A   Clear
7:54 PM 54.0 °F - 52.0 °F 93% 30.03 in 10.0 mi South 4.6 mph - N/A   Clear
8:54 PM 54.0 °F - 52.0 °F 93% 30.04 in 10.0 mi Variable 5.8 mph - N/A   Mostly Cloudy
9:28 PM 53.6 °F - 51.8 °F 94% 30.06 in 10.0 mi South 10.4 mph - N/A   Scattered Clouds
9:54 PM 52.0 °F - 51.1 °F 97% 30.05 in 10.0 mi South 6.9 mph - N/A   Partly Cloudy
10:21 PM 53.6 °F - 51.8 °F 94% 30.07 in 10.0 mi SE 4.6 mph - N/A   Mostly Cloudy
10:54 PM 54.0 °F - 52.0 °F 93% 30.04 in 10.0 mi Calm Calm - N/A   Overcast
11:36 PM 55.4 °F - 53.6 °F 94% 30.08 in 10.0 mi SSE 4.6 mph - N/A   Overcast
11:54 PM 55.0 °F - 53.1 °F 93% 30.04 in 10.0 mi SE 4.6 mph - N/A   Overcast